Caldwell, ID

4:16 PM MDT on August 25, 2016 (GMT -0600)
Caldwell Industrial

Weather History for KEUL - August, 2014

Change the Weather History Date:

Friday, August 22, 2014

  Actual Average (KBOI) Record (KBOI)
Temperature  
Mean Temperature 68 °F 73 °F  
Max Temperature 82 °F 88 °F 101 °F (1950)
Min Temperature 53 °F 59 °F 39 °F (1892)
Degree Days  
Heating Degree Days 0 0  
Month to date heating degree days 0  
Since 1 June heating degree days 72  
Since 1 July heating degree days 8  
Cooling Degree Days 2 9  
Month to date cooling degree days 240  
Year to date cooling degree days 765  
Since 1 June cooling degree days 721  
Growing Degree Days 18 (Base 50)    
Moisture  
Dew Point 39 °F    
Average Humidity 37    
Maximum Humidity 59    
Minimum Humidity 20    
Precipitation  
Precipitation 0.00 in 0.01 in 0.70 in (1984)
Month to date precipitation 0.16  
Year to date precipitation 7.42  
Snow  
Snow 0.00 in 0.00 in 0.00 in (2006)
Month to date snowfall 0.0  
Since 1 July snowfall 0.0  
Snow Depth -    
Sea Level Pressure  
Sea Level Pressure 29.91 in    
Wind  
Wind Speed 6 mph (NW)    
Max Wind Speed 18 mph    
Max Gust Speed 26 mph    
Visibility 10 miles    
Events      
T = Trace of Precipitation, MM = Missing Value Source: NWS Daily Summary

Daily Weather History Graph

Daily Weather History Graph

Search for Another Location

Airport or City:

Trip Planner

Search our weather history database for the weather conditions in past years. The results will help you decide how hot, cold, wet, or windy it might be!

Date:

Astronomy

Aug. 22, 2014 Rise Set
Actual Time 6:59 AM MDT 8:38 PM MDT
Civil Twilight 6:28 AM MDT 9:09 PM MDT
Nautical Twilight 5:51 AM MDT 9:45 PM MDT
Astronomical Twilight 5:12 AM MDT 10:25 PM MDT
Moon 4:23 AM MDT (8/22) 6:51 PM MDT (8/22)
Length of Visible Light 14h 40m
Length of Day
13h 39m
Waning Crescent, 7% of the Moon is Illuminated
Aug 22
Waning Crescent
Aug 25
New
Sep 2
First Quarter
Sep 8
Full
Sep 15
Last Quarter

Hourly Weather History & Observations

Time (MDT) Temp. Dew Point Humidity Pressure Visibility Wind Dir Wind Speed Gust Speed Precip Events Conditions
12:35 AM 60.8 °F 39.2 °F 45% 29.88 in 10.0 mi East 8.1 mph - N/A   Clear
12:55 AM 60.8 °F 39.2 °F 45% 29.88 in 10.0 mi East 10.4 mph - N/A   Clear
1:15 AM 59.0 °F 41.0 °F 51% 29.88 in 10.0 mi Calm Calm - N/A   Clear
1:35 AM 59.0 °F 41.0 °F 51% 29.88 in 10.0 mi NNE 6.9 mph - N/A   Clear
1:55 AM 59.0 °F 41.0 °F 51% 29.88 in 10.0 mi NNE 5.8 mph - N/A   Clear
2:15 AM 59.0 °F 39.2 °F 48% 29.88 in 10.0 mi ENE 5.8 mph - N/A   Clear
2:35 AM 59.0 °F 39.2 °F 48% 29.88 in 10.0 mi ENE 6.9 mph - N/A   Clear
2:55 AM 57.2 °F 42.8 °F 59% 29.89 in 10.0 mi Calm Calm - N/A   Clear
3:15 AM 59.0 °F 41.0 °F 51% 29.89 in 10.0 mi West 3.5 mph - N/A   Clear
3:35 AM 59.0 °F 41.0 °F 51% 29.89 in 10.0 mi Calm Calm - N/A   Clear
3:55 AM 59.0 °F 42.8 °F 55% 29.90 in 10.0 mi Calm Calm - N/A   Clear
4:15 AM 59.0 °F 42.8 °F 55% 29.90 in 10.0 mi SW 3.5 mph - N/A   Clear
4:35 AM 60.8 °F 42.8 °F 52% 29.90 in 10.0 mi WSW 3.5 mph - N/A   Clear
4:55 AM 59.0 °F 42.8 °F 55% 29.90 in 10.0 mi West 5.8 mph - N/A   Clear
5:15 AM 57.2 °F 41.0 °F 55% 29.90 in 10.0 mi West 5.8 mph - N/A   Clear
5:35 AM 57.2 °F 39.2 °F 51% 29.90 in 10.0 mi SW 5.8 mph - N/A   Clear
5:55 AM 55.4 °F 39.2 °F 54% 29.90 in 10.0 mi Calm Calm - N/A   Clear
6:15 AM 55.4 °F 39.2 °F 54% 29.90 in 10.0 mi Calm Calm - N/A   Clear
6:35 AM 53.6 °F 39.2 °F 58% 29.91 in 10.0 mi Calm Calm - N/A   Clear
6:55 AM 55.4 °F 39.2 °F 54% 29.91 in 10.0 mi South 3.5 mph - N/A   Clear
7:15 AM 53.6 °F 39.2 °F 58% 29.92 in 9.0 mi Calm Calm - N/A   Clear
7:35 AM 55.4 °F 37.4 °F 51% 29.92 in 10.0 mi SW 3.5 mph - N/A   Clear
7:55 AM 55.4 °F 37.4 °F 51% 29.92 in 10.0 mi WSW 3.5 mph - N/A   Clear
8:15 AM 59.0 °F 35.6 °F 42% 29.92 in 10.0 mi West 4.6 mph - N/A   Clear
8:35 AM 60.8 °F 35.6 °F 39% 29.93 in 10.0 mi WSW 3.5 mph - N/A   Clear
8:55 AM 60.8 °F 33.8 °F 36% 29.94 in 10.0 mi West 5.8 mph - N/A   Clear
9:15 AM 62.6 °F 33.8 °F 34% 29.94 in 10.0 mi WNW 4.6 mph - N/A   Clear
9:35 AM 62.6 °F 33.8 °F 34% 29.95 in 10.0 mi WNW 8.1 mph - N/A   Clear
9:55 AM 64.4 °F 35.6 °F 34% 29.95 in 10.0 mi WNW 8.1 mph - N/A   Clear
10:15 AM 66.2 °F 37.4 °F 35% 29.95 in 10.0 mi WNW 10.4 mph - N/A   Clear
10:35 AM 68.0 °F 35.6 °F 30% 29.95 in 10.0 mi WNW 12.7 mph 17.3 mph N/A   Clear
10:55 AM 69.8 °F 37.4 °F 31% 29.94 in 10.0 mi NW 11.5 mph 16.1 mph N/A   Clear
11:15 AM 69.8 °F 37.4 °F 31% 29.94 in 10.0 mi NW 12.7 mph - N/A   Clear
11:35 AM 71.6 °F 39.2 °F 31% 29.94 in 10.0 mi NW 12.7 mph - N/A   Clear
11:55 AM 71.6 °F 39.2 °F 31% 29.94 in 10.0 mi WNW 5.8 mph - N/A   Clear
12:15 PM 73.4 °F 39.2 °F 29% 29.94 in 10.0 mi NW 6.9 mph - N/A   Clear
12:35 PM 73.4 °F 41.0 °F 31% 29.94 in 10.0 mi West 5.8 mph - N/A   Clear
12:55 PM 73.4 °F 39.2 °F 29% 29.93 in 10.0 mi NW 4.6 mph - N/A   Clear
1:15 PM 75.2 °F 41.0 °F 29% 29.92 in 10.0 mi NNW 8.1 mph - N/A   Clear
1:35 PM 75.2 °F 39.2 °F 27% 29.92 in 10.0 mi NNW 6.9 mph - N/A   Clear
1:55 PM 77.0 °F 39.2 °F 26% 29.91 in 10.0 mi North 6.9 mph - N/A   Clear
2:15 PM 78.8 °F 39.2 °F 24% 29.91 in 10.0 mi NW 6.9 mph - N/A   Clear
2:35 PM 78.8 °F 39.2 °F 24% 29.91 in 10.0 mi NW 5.8 mph - N/A   Clear
2:55 PM 78.8 °F 39.2 °F 24% 29.90 in 10.0 mi North 8.1 mph - N/A   Clear
3:15 PM 80.6 °F 39.2 °F 23% 29.89 in 10.0 mi NNE 6.9 mph - N/A   Clear
3:35 PM 80.6 °F 39.2 °F 23% 29.88 in 10.0 mi North 9.2 mph - N/A   Clear
3:55 PM 80.6 °F 37.4 °F 21% 29.88 in 10.0 mi North 11.5 mph 16.1 mph N/A   Clear
4:15 PM 80.6 °F 39.2 °F 23% 29.87 in 10.0 mi NNW 8.1 mph 16.1 mph N/A   Clear
4:35 PM 80.6 °F 37.4 °F 21% 29.87 in 10.0 mi NW 10.4 mph - N/A   Clear
4:55 PM 80.6 °F 37.4 °F 21% 29.86 in 10.0 mi NNW 6.9 mph - N/A   Clear
5:15 PM 82.4 °F 37.4 °F 20% 29.86 in 10.0 mi NNE 12.7 mph - N/A   Clear
5:35 PM 80.6 °F 37.4 °F 21% 29.86 in 10.0 mi NNW 10.4 mph - N/A   Clear
5:55 PM 80.6 °F 37.4 °F 21% 29.85 in 5.0 mi NW 8.1 mph - N/A   Clear
6:15 PM 80.6 °F 37.4 °F 21% 29.85 in 10.0 mi NW 9.2 mph - N/A   Clear
6:35 PM 78.8 °F 37.4 °F 23% 29.86 in 6.0 mi NNW 9.2 mph - N/A   Scattered Clouds
6:55 PM 75.2 °F 39.2 °F 27% 29.87 in 10.0 mi NNW 13.8 mph - N/A   Scattered Clouds
7:15 PM 75.2 °F 37.4 °F 25% 29.88 in 8.0 mi NNW 16.1 mph 24.2 mph N/A   Mostly Cloudy
7:35 PM 75.2 °F 37.4 °F 25% 29.89 in 9.0 mi NNW 18.4 mph 26.5 mph N/A   Mostly Cloudy
7:55 PM 75.2 °F 35.6 °F 24% 29.90 in 10.0 mi NW 15.0 mph 26.5 mph N/A   Scattered Clouds
8:15 PM 73.4 °F 37.4 °F 27% 29.91 in 10.0 mi North 11.5 mph 19.6 mph N/A   Mostly Cloudy
8:55 PM 69.8 °F 37.4 °F 31% 29.92 in 10.0 mi NNW 8.1 mph - N/A   Clear
9:15 PM 68.0 °F 37.4 °F 33% 29.94 in 10.0 mi NNW 6.9 mph - N/A   Partly Cloudy
9:35 PM 66.2 °F 39.2 °F 37% 29.94 in 10.0 mi NNW 8.1 mph - N/A   Mostly Cloudy
9:55 PM 66.2 °F 39.2 °F 37% 29.96 in 10.0 mi NNE 5.8 mph - N/A   Mostly Cloudy
10:15 PM 64.4 °F 39.2 °F 40% 29.96 in 10.0 mi Calm Calm - N/A   Clear
10:35 PM 62.6 °F 39.2 °F 42% 29.96 in 10.0 mi Calm Calm - N/A   Clear
10:55 PM 62.6 °F 37.4 °F 39% 29.97 in 10.0 mi WNW 9.2 mph - N/A   Clear
11:15 PM 60.8 °F 39.2 °F 45% 29.98 in 10.0 mi NW 10.4 mph - N/A   Clear
11:35 PM 60.8 °F 37.4 °F 42% 29.98 in 10.0 mi WNW 9.2 mph - N/A   Clear
11:55 PM 60.8 °F 39.2 °F 45% 29.99 in 10.0 mi NW 5.8 mph - N/A   Clear